Location: Julian California
(33.0790°N, 116.6010°W)
Time: 13:33:28
(UTC-08:00)

YAOGAN 6 - Pass Details

Date: 12 July 2018
Orbit: 468 x 505 km, 97.1° (Epoch: 17 November)

Event Time Altitude Azimuth Distance (km) Brightness Sun altitude
Rises 20:52:44 0° 188° (S) 2,486 5.9 -10.8°
Reaches altitude 10° 20:54:55 10° 198° (SSW) 1,615 5.0 -11.2°
Maximum altitude 20:58:02 31° 263° (W) 843 4.3 -11.7°
Drops below altitude 10° 21:01:11 10° 327° (NNW) 1,633 6.5 -12.2°
Sets 21:03:25 0° 338° (NNW) 2,518 7.3 -12.6°
